FW7665 Weather Reports


Display with metric or nautical units.
time (UTC)temp
F
wind
direction
speed
MPH
gust
MPH
rain 1hr
in
rain 24hr
in
rain mn
in
humidity
%
barometer
mb
20260903042725 53 0 0.0 0.0 0.00 0.02 0.02 79 1022.6
20260903041803 53 0 0.0 0.0 0.00 0.02 0.02 80 1022.6
20260903040905 53 0 0.0 0.0 0.00 0.02 0.02 80 1022.6
20260903040010 53 0 0.0 0.0 0.00 0.02 0.02 80 1022.6
20260903035409 53 0 0.0 0.0 0.00 0.02 0.02 80 1022.6
20260903034508 54 0 0.0 0.0 0.00 0.02 0.02 81 1022.6
20260903033609 54 0 0.0 0.0 0.00 0.02 0.02 81 1022.6
20260903032729 54 0 0.0 0.0 0.00 0.02 0.02 81 1022.6
20260903031809 54 0 0.0 0.0 0.00 0.02 0.02 81 1022.6
20260903030908 54 0 0.0 0.0 0.00 0.02 0.02 83 1022.6
20260903030033 54 0 0.0 0.0 0.00 0.02 0.02 82 1022.6
20260903025409 54 0 0.0 0.0 0.00 0.02 0.02 82 1022.6
20260903024508 54 0 0.0 0.0 0.00 0.02 0.02 81 1022.6
20260903023609 55 0 0.0 0.0 0.00 0.02 0.02 82 1022.6
20260903022708 55 0 0.0 0.0 0.00 0.02 0.02 82 1022.6
20260903021811 56 0 0.0 0.0 0.00 0.02 0.02 82 1022.6
20260903020908 56 0 0.0 0.0 0.00 0.02 0.02 81 1022.6
20260903020009 56 0 0.0 0.0 0.00 0.02 0.02 81 1022.6
20260903015409 56 0 0.0 0.0 0.00 0.02 0.02 80 1022.6
20260903014508 56 0 0.0 0.0 0.00 0.02 0.02 79 1022.6
20260903013630 57 0 0.0 0.0 0.00 0.02 0.02 78 1022.6
20260903012708 58 0 0.0 0.0 0.00 0.02 0.02 79 1022.6
20260903011809 58 0 0.0 0.0 0.00 0.02 0.02 81 1022.6
20260903010908 59 0 0.0 0.0 0.00 0.02 0.02 82 1022.6
20260903010009 59 0 0.0 0.0 0.00 0.02 0.02 80 1022.2
20260903005411 59 0 0.0 0.0 0.00 0.02 0.02 81 1022.2
20260903004510 59 0 0.0 0.0 0.00 0.02 0.02 81 1022.2
20260903003611 59 0 0.0 0.0 0.00 0.02 0.02 82 1022.2
20260903002710 59 0 0.0 0.0 0.00 0.02 0.02 81 1022.2
20260903001811 59 0 0.0 0.0 0.00 0.02 0.02 80 1022.2
20260903000910 59 0 0.0 0.0 0.00 0.02 0.02 79 1022.2
20260903000011 60 0 0.0 0.0 0.00 0.02 0.02 80 1022.2
20260902235411 60 0 0.0 0.0 0.00 0.02 0.02 80 1022.2
20260902234531 59 0 0.0 0.0 0.00 0.02 0.02 79 1022.2
20260902233635 59 237 0.0 4.0 0.00 0.02 0.02 80 1022.2
20260902232710 58 134 0.0 2.0 0.00 0.02 0.02 79 1022.2
20260902231811 59 0 0.0 0.0 0.02 0.02 0.02 81 1022.2
20260902230910 59 152 0.0 4.0 0.02 0.02 0.02 82 1022.2
20260902230011 58 0 0.0 0.0 0.02 0.02 0.02 84 1022.2
20260902225410 58 0 0.0 0.0 0.02 0.02 0.02 85 1022.2
20260902224513 58 0 0.0 0.0 0.02 0.02 0.02 85 1022.2
20260902223610 58 190 0.0 4.0 0.02 0.02 0.02 80 1022.2
20260902222710 60 140 0.0 3.0 0.02 0.02 0.02 76 1022.2
20260902221810 66 107 2.0 7.0 0.00 0.00 0.00 61 1022.2
20260902220910 67 121 1.0 2.0 0.00 0.00 0.00 50 1022.2
20260902220011 68 134 0.0 4.0 0.00 0.00 0.00 46 1022.2
20260902215412 69 192 2.0 7.0 0.00 0.00 0.00 41 1022.2
20260902214509 70 114 1.0 8.0 0.00 0.00 0.00 45 1022.2
20260902213610 70 105 2.0 6.0 0.00 0.00 0.00 39 1022.2
20260902212710 69 105 1.0 3.0 0.00 0.00 0.00 41 1022.2
20260902211810 70 105 1.0 3.0 0.00 0.00 0.00 38 1022.2
20260902210909 70 130 2.0 4.0 0.00 0.00 0.00 36 1022.2
20260902210032 70 118 2.0 7.0 0.00 0.00 0.00 35 1022.6
20260902205410 70 101 2.0 6.0 0.00 0.00 0.00 36 1022.6
20260902204530 70 100 2.0 4.0 0.00 0.00 0.00 38 1022.6
20260902203631 71 125 2.0 7.0 0.00 0.00 0.00 37 1022.6
20260902202710 70 122 1.0 4.0 0.00 0.00 0.00 38 1022.6
20260902201810 69 135 0.0 3.0 0.00 0.00 0.00 41 1022.6
20260902200930 70 135 1.0 2.0 0.00 0.00 0.00 43 1022.6
20260902200010 71 126 2.0 3.0 0.00 0.00 0.00 33 1022.8
20260902195410 71 123 2.0 5.0 0.00 0.00 0.00 34 1022.8
20260902194509 72 123 1.0 4.0 0.00 0.00 0.00 37 1022.8
20260902193610 72 103 2.0 6.0 0.00 0.00 0.00 35 1022.8
20260902192709 74 71 2.0 8.0 0.00 0.00 0.00 29 1022.8
20260902191810 77 113 5.0 10.0 0.00 0.00 0.00 27 1022.8
20260902190909 77 132 2.0 12.0 0.00 0.00 0.00 30 1022.8
20260902190031 76 73 2.0 8.0 0.00 0.00 0.00 25 1023.9
20260902185410 77 52 4.0 12.0 0.00 0.00 0.00 25 1023.9
20260902184509 77 85 3.0 8.0 0.00 0.00 0.00 27 1023.9
20260902183631 75 50 3.0 11.0 0.00 0.00 0.00 30 1023.9
20260902182709 74 24 2.0 6.0 0.00 0.00 0.00 29 1023.9
20260902181831 73 31 3.0 6.0 0.00 0.00 0.00 28 1023.9
20260902180909 73 67 3.0 7.0 0.00 0.00 0.00 31 1023.9
20260902180014 73 57 2.0 4.0 0.00 0.00 0.00 31 1024.2
20260902175409 73 83 2.0 6.0 0.00 0.00 0.00 30 1024.2
20260902174508 73 76 4.0 11.0 0.00 0.00 0.00 29 1024.2
20260902173610 74 114 3.0 8.0 0.00 0.00 0.00 30 1024.2
20260902172709 74 79 3.0 9.0 0.00 0.00 0.00 31 1024.2
20260902171810 73 50 4.0 11.0 0.00 0.00 0.00 30 1024.2
20260902170908 73 55 4.0 13.0 0.00 0.00 0.00 32 1024.2
20260902170031 73 98 4.0 16.0 0.00 0.00 0.00 31 1024.2
20260902165430 72 68 4.0 16.0 0.00 0.00 0.00 31 1024.2
20260902164508 72 57 3.0 11.0 0.00 0.00 0.00 33 1024.2
20260902163610 71 75 4.0 12.0 0.00 0.00 0.00 34 1024.2
20260902162708 70 73 5.0 11.0 0.00 0.00 0.00 34 1024.2
20260902161809 69 12 2.0 9.0 0.00 0.00 0.00 38 1024.2
20260902160908 68 37 2.0 6.0 0.00 0.00 0.00 41 1024.2
20260902160014 67 52 2.0 5.0 0.00 0.00 0.00 40 1024.2
20260902155410 66 96 2.0 8.0 0.00 0.00 0.00 42 1024.2
20260902154508 64 106 3.0 8.0 0.00 0.00 0.00 44 1024.2
20260902153609 62 121 2.0 5.0 0.00 0.00 0.00 57 1024.2
20260902152708 60 335 1.0 7.0 0.00 0.00 0.00 57 1024.2
20260902151809 56 78 2.0 5.0 0.00 0.00 0.00 71 1024.2
20260902150908 52 124 1.0 3.0 0.00 0.00 0.00 77 1024.2
20260902150009 50 0 0.0 0.0 0.00 0.00 0.00 86 1024.8
20260902145409 49 141 0.0 2.0 0.00 0.00 0.00 87 1024.8
20260902144508 48 0 0.0 0.0 0.00 0.00 0.00 85 1024.8
20260902143609 46 0 0.0 0.0 0.00 0.00 0.00 86 1024.8
20260902142729 46 0 0.0 0.0 0.00 0.00 0.00 86 1024.8
20260902141809 45 0 0.0 0.0 0.00 0.00 0.00 85 1024.8
20260902140908 44 0 0.0 0.0 0.00 0.00 0.00 85 1024.8
20260902140009 44 167 0.0 1.0 0.00 0.00 0.00 85 1025.1
20260902135430 44 0 0.0 0.0 0.00 0.00 0.00 85 1025.1
20260902134529 43 0 0.0 0.0 0.00 0.00 0.00 85 1025.1
20260902133609 43 0 0.0 0.0 0.00 0.00 0.00 85 1025.1
20260902132708 43 0 0.0 0.0 0.00 0.00 0.00 85 1025.1
20260902131808 43 0 0.0 0.0 0.00 0.00 0.00 85 1025.1
20260902130907 43 0 0.0 0.0 0.00 0.00 0.00 85 1025.1
20260902130015 43 0 0.0 0.0 0.00 0.00 0.00 85 1024.8
20260902125409 43 0 0.0 0.0 0.00 0.00 0.00 85 1024.8
20260902124507 43 0 0.0 0.0 0.00 0.00 0.00 86 1024.8
20260902123609 43 0 0.0 0.0 0.00 0.00 0.00 86 1024.8
20260902122729 43 0 0.0 0.0 0.00 0.00 0.00 86 1024.8
20260902121809 43 0 0.0 0.0 0.00 0.00 0.00 86 1024.8
20260902120907 43 0 0.0 0.0 0.00 0.00 0.00 86 1024.8
20260902120029 43 119 0.0 2.0 0.00 0.00 0.00 86 1024.8
20260902115408 43 119 0.0 2.0 0.00 0.00 0.00 85 1024.8
20260902114507 43 0 0.0 0.0 0.00 0.00 0.00 85 1024.8
20260902113608 43 0 0.0 0.0 0.00 0.00 0.00 85 1024.8
20260902112707 43 0 0.0 0.0 0.00 0.00 0.00 85 1024.8
20260902111808 44 0 0.0 0.0 0.00 0.00 0.00 85 1024.8
20260902110907 44 0 0.0 0.0 0.00 0.00 0.00 84 1024.8
20260902110030 44 0 0.0 0.0 0.00 0.00 0.00 84 1024.8
20260902105408 44 0 0.0 0.0 0.00 0.00 0.00 84 1024.8
20260902104507 44 0 0.0 0.0 0.00 0.00 0.00 84 1024.8
20260902103629 45 0 0.0 0.0 0.00 0.00 0.00 83 1024.8
20260902102728 45 0 0.0 0.0 0.00 0.00 0.00 83 1024.8
20260902101808 46 0 0.0 0.0 0.00 0.00 0.00 83 1024.8
20260902100907 46 0 0.0 0.0 0.00 0.00 0.00 83 1024.8
20260902100009 46 0 0.0 0.0 0.00 0.00 0.00 82 1025.0
20260902095408 46 0 0.0 0.0 0.00 0.00 0.00 82 1025.0
20260902094507 46 0 0.0 0.0 0.00 0.00 0.00 82 1025.0
20260902093629 47 0 0.0 0.0 0.00 0.00 0.00 81 1025.0
20260902092707 47 0 0.0 0.0 0.00 0.00 0.00 81 1025.0
20260902091808 47 0 0.0 0.0 0.00 0.00 0.00 81 1025.0
20260902090907 47 0 0.0 0.0 0.00 0.00 0.00 80 1025.0
20260902090008 47 0 0.0 0.0 0.00 0.00 0.00 80 1025.1
20260902085429 48 0 0.0 0.0 0.00 0.00 0.00 79 1025.1
20260902084527 48 0 0.0 0.0 0.00 0.00 0.00 79 1025.1
20260902083608 48 0 0.0 0.0 0.00 0.00 0.00 79 1025.1
20260902082728 48 0 0.0 0.0 0.00 0.00 0.00 79 1025.1
20260902081807 48 0 0.0 0.0 0.00 0.00 0.00 77 1025.1
20260902080907 49 0 0.0 0.0 0.00 0.00 0.00 77 1025.1
20260902080009 49 0 0.0 0.0 0.00 0.00 0.00 77 1025.1
20260902075408 49 0 0.0 0.0 0.00 0.00 0.00 78 1025.1
20260902074506 49 0 0.0 0.0 0.00 0.00 0.00 77 1025.1
20260902073607 50 0 0.0 0.0 0.00 0.00 0.00 76 1025.1
20260902072707 50 0 0.0 0.0 0.00 0.00 0.00 77 1025.1
20260902071807 50 0 0.0 0.0 0.00 0.00 0.00 77 1025.1
20260902070927 50 0 0.0 0.0 0.00 0.00 0.00 76 1025.1
20260902070017 51 0 0.0 0.0 0.00 0.00 0.00 77 1025.1
20260902065407 51 0 0.0 0.0 0.00 0.00 0.00 76 1025.1
20260902064506 51 0 0.0 0.0 0.00 0.00 0.00 75 1025.1
20260902063607 51 0 0.0 0.0 0.00 0.00 0.00 76 1025.1
20260902062706 51 0 0.0 0.0 0.00 0.00 0.00 74 1025.1
20260902061807 51 0 0.0 0.0 0.00 0.00 0.00 75 1025.1
20260902060906 52 0 0.0 0.0 0.00 0.00 0.00 74 1025.1
20260902060012 52 0 0.0 0.0 0.00 0.00 0.00 73 1025.1
20260902055408 52 0 0.0 0.0 0.00 0.00 0.00 73 1025.1
20260902054506 52 0 0.0 0.0 0.00 0.00 0.00 73 1025.1
20260902053607 52 0 0.0 0.0 0.00 0.00 0.00 73 1025.1
20260902051807 52 119 0.0 2.0 0.00 0.00 0.00 73 1025.2
20260902050906 53 0 0.0 0.0 0.00 0.00 0.00 70 1025.2
20260902050033 53 0 0.0 0.0 0.00 0.00 0.00 72 1025.2
20260902045407 53 0 0.0 0.0 0.00 0.00 0.00 71 1025.2
20260902044506 54 0 0.0 0.0 0.00 0.00 0.00 69 1025.2
20260902043607 54 0 0.0 0.0 0.00 0.00 0.00 70 1025.2